Location: Newark
(47.5989°N, 4.6950°E)
Time: 02:58:18
(UTC+00:00)

Envisat - Pass Details

Date: 18 November 2019
Orbit: 764 x 766 km, 98.1° (Epoch: 12 December)

Event Time Altitude Azimuth Distance (km) Brightness Sun altitude
Rises 17:52:48 0° 175° (S) 3,220 6.3 -18.5°
Reaches altitude 10° 17:55:07 10° 179° (S) 2,298 5.5 -18.9°
Maximum altitude 18:00:07 60° 259° (W) 877 3.5 -19.7°
Drops below altitude 10° 18:05:10 10° 340° (NNW) 2,314 5.6 -20.5°
Sets 18:07:31 0° 344° (NNW) 3,245 6.4 -20.9°
